Location: Augsburg
(48.3836°N, 10.8929°E)
Time: 12:13:23
(UTC+02:00)

ISS - Visible Passes

Search period start: 13 May 2021 00:00
Search period end: 23 May 2021 00:00
Orbit: 417 x 422 km, 51.6° (Epoch: 13 May)

Date Brightness Start Highest point End Pass type
(mag) Time Alt. Az. Time Alt. Az. Time Alt. Az.
13 May -1.0 00:32:06 12° ENE 00:32:06 12° ENE 00:32:20 10° ENE visible
13 May -2.7 02:05:02 35° NW 02:05:58 46° N 02:09:15 10° ENE visible
13 May -3.5 03:39:41 10° WNW 03:43:04 69° NNE 03:46:27 10° ESE visible
14 May -2.8 01:18:38 49° N 01:18:38 49° N 01:21:45 10° ENE visible
14 May -3.1 02:52:14 10° WNW 02:55:35 56° NNE 02:58:55 10° E visible
14 May -3.5 04:29:08 10° WNW 04:32:22 45° SSW 04:35:37 10° SE visible
14 May -3.5 22:50:56 10° SW 22:54:08 43° SSE 22:55:35 26° E visible
15 May -3.2 00:27:36 10° W 00:30:56 57° NNW 00:34:17 10° ENE visible
15 May -2.8 02:04:46 10° WNW 02:08:04 49° N 02:11:22 10° E visible
15 May -3.9 03:41:38 10° WNW 03:45:00 66° SSW 03:48:21 10° SE visible
15 May -2.9 22:03:51 10° SSW 22:06:49 29° SE 22:09:48 10° E visible
15 May -3.5 23:40:05 10° WSW 23:43:27 70° NNW 23:46:50 10° ENE visible
16 May -2.7 01:17:16 10° WNW 01:20:32 46° N 01:23:49 10° ENE visible
16 May -3.9 02:54:11 10° WNW 02:57:34 90° N 03:00:58 10° ESE visible
16 May -2.4 04:31:29 10° W 04:34:03 20° SW 04:36:37 10° S visible
16 May -3.8 22:52:37 10° WSW 22:55:59 89° SSE 22:59:22 10° ENE visible
17 May -2.7 00:29:44 10° WNW 00:33:01 46° N 00:36:18 10° ENE visible
17 May -3.5 02:06:44 10° WNW 02:10:06 69° NNE 02:13:29 10° ESE visible
17 May -3.0 03:43:45 10° W 03:46:45 30° SW 03:49:45 10° SSE visible
17 May -3.8 22:05:14 10° SW 22:08:34 64° SSE 22:11:55 10° ENE visible
17 May -2.8 23:42:11 10° W 23:45:29 49° N 23:48:47 10° ENE visible
18 May -3.1 01:19:17 10° WNW 01:22:37 56° NNE 01:22:56 53° NE visible
18 May -3.1 22:54:38 10° W 22:57:58 57° NNW 23:01:19 10° ENE visible
19 May -2.9 00:31:48 10° WNW 00:35:05 49° N 00:36:32 28° ENE visible
19 May -1.4 02:08:40 10° WNW 02:09:26 16° WNW 02:09:26 16° WNW visible
19 May -3.4 22:07:07 10° WSW 22:10:28 70° NNW 22:13:50 10° ENE visible
19 May -2.7 23:44:18 10° WNW 23:47:34 46° N 23:50:21 13° ENE visible
20 May -2.5 01:21:13 10° WNW 01:23:17 35° WNW 01:23:17 35° WNW visible
20 May -2.7 22:56:45 10° WNW 23:00:02 46° N 23:03:18 10° ENE visible
21 May -3.6 00:33:45 10° WNW 00:37:07 70° NNE 00:37:12 69° NNE visible
21 May -2.8 22:09:12 10° W 22:12:30 49° N 22:15:48 10° ENE visible
21 May -3.2 23:46:17 10° WNW 23:49:37 56° NNE 23:51:09 28° E visible
22 May -1.5 01:23:11 10° WNW 01:24:06 17° W 01:24:06 17° W visible
22 May -2.9 22:58:48 10° WNW 23:02:06 49° N 23:05:10 11° E visible
